This is the latest recevied weather packets stored in our database for station/object OK2ILA-1. If no packets are shown the sender has not sent any weather packets the latest 10 day(s).
| Time | Temp. | Humidity | Pressure | Rain* | Wind** | Luminosity | Snow |
|---|---|---|---|---|---|---|---|
| 1788157422 | 18.89° C | 100% | 1016.5 hPa | 0 mm | - | - | - |
| 1788156702 | 18.89° C | 100% | 1016.5 hPa | 0 mm | - | - | - |
| 1788155981 | 18.33° C | 100% | 1016.8 hPa | 0 mm | - | - | - |
| 1788155260 | 17.78° C | 100% | 1017 hPa | 0 mm | - | - | - |
| 1788154540 | 17.78° C | 100% | 1017 hPa | 0 mm | - | - | - |
| 1788153819 | 17.22° C | 100% | 1016.9 hPa | 0 mm | - | - | - |
| 1788153098 | 17.22° C | 100% | 1016.8 hPa | 0 mm | - | - | - |
| 1788152378 | 17.22° C | 100% | 1016.8 hPa | 0 mm | - | - | - |
| 1788151657 | 17.22° C | 100% | 1016.7 hPa | 0 mm | - | - | - |
| 1788150936 | 16.67° C | 100% | 1016.7 hPa | 0 mm | - | - | - |
| 1788150216 | 16.67° C | 100% | 1016.8 hPa | 0 mm | - | - | - |
| 1788149495 | 17.22° C | 100% | 1016.8 hPa | 0 mm | - | - | - |
| 1788148774 | 17.22° C | 100% | 1016.8 hPa | 0 mm | - | - | - |
| 1788148054 | 17.22° C | 100% | 1016.9 hPa | 0 mm | - | - | - |
| 1788147333 | 17.22° C | 100% | 1016.8 hPa | 0 mm | - | - | - |
| 1788146612 | 17.22° C | 100% | 1016.8 hPa | 0 mm | - | - | - |
| 1788145892 | 17.22° C | 100% | 1016.9 hPa | 0 mm | - | - | - |
| 1788145171 | 17.22° C | 100% | 1016.9 hPa | 0 mm | - | - | - |
| 1788144450 | 16.67° C | 100% | 1017.1 hPa | 0 mm | - | - | - |
| 1788143730 | 16.67° C | 100% | 1017.1 hPa | 0 mm | - | - | - |
| 1788143009 | 17.22° C | 100% | 1017.1 hPa | 0 mm | - | - | - |
| 1788122830 | 20.56° C | 100% | 1017.4 hPa | 0 mm | - | - | - |
| 1788120668 | 21.67° C | 100% | 1017.2 hPa | 0 mm | - | - | - |
| 1788119226 | 22.22° C | 100% | 1017.3 hPa | 0 mm | - | - | - |
| 1788118506 | 22.78° C | 100% | 1017.2 hPa | 0 mm | - | - | - |
* Rain latest hour (hover to see other rain measurements)
** Current wind speed in m/s (hover to see current wind gust speed)